TimeMST,TemperatureF,Dew PointF,Humidity,Sea Level PressureIn,VisibilityMPH,Wind Direction,Wind SpeedMPH,Gust SpeedMPH,PrecipitationIn,Events,Conditions,WindDirDegrees,DateUTC
12:51 AM,52.0,12.0,20,30.02,10.0,NE,4.6,-,N/A,,Clear,50,2013-01-03 07:51:00
1:51 AM,51.1,12.0,21,30.02,10.0,ENE,6.9,-,N/A,,Clear,60,2013-01-03 08:51:00
2:51 AM,48.0,17.1,29,30.04,10.0,Variable,3.5,-,N/A,,Clear,0,2013-01-03 09:51:00
3:51 AM,50.0,12.9,23,30.04,10.0,ENE,5.8,-,N/A,,Clear,70,2013-01-03 10:51:00
4:51 AM,46.0,15.1,29,30.04,10.0,East,3.5,-,N/A,,Clear,80,2013-01-03 11:51:00
5:51 AM,43.0,21.0,42,30.05,10.0,Calm,Calm,-,N/A,,Clear,0,2013-01-03 12:51:00
6:51 AM,45.0,14.0,29,30.06,10.0,East,4.6,-,N/A,,Clear,80,2013-01-03 13:51:00
7:51 AM,41.0,19.9,43,30.09,10.0,Calm,Calm,-,N/A,,Clear,0,2013-01-03 14:51:00
8:51 AM,46.0,21.9,39,30.11,10.0,Calm,Calm,-,N/A,,Clear,0,2013-01-03 15:51:00
9:51 AM,51.1,17.1,26,30.12,10.0,Calm,Calm,-,N/A,,Clear,0,2013-01-03 16:51:00
10:51 AM,55.9,12.0,18,30.13,10.0,ENE,16.1,-,N/A,,Clear,60,2013-01-03 17:51:00
11:51 AM,57.9,14.0,18,30.11,10.0,ENE,13.8,-,N/A,,Clear,70,2013-01-03 18:51:00
12:51 PM,60.1,14.0,16,30.08,10.0,NE,13.8,-,N/A,,Clear,40,2013-01-03 19:51:00
1:51 PM,60.8,15.8,17,30.07,10.0,NE,11.5,-,N/A,,Clear,40,2013-01-03 20:51:00
2:51 PM,62.1,15.1,16,30.06,10.0,ENE,17.3,-,N/A,,Clear,70,2013-01-03 21:51:00
3:51 PM,62.1,16.0,17,30.06,10.0,ENE,12.7,19.6,N/A,,Clear,70,2013-01-03 22:51:00
4:51 PM,62.1,17.1,18,30.07,10.0,ENE,12.7,-,N/A,,Clear,70,2013-01-03 23:51:00
5:51 PM,59.0,18.0,20,30.09,10.0,ENE,9.2,-,N/A,,Clear,70,2013-01-04 00:51:00
6:51 PM,57.9,18.0,21,30.09,10.0,NE,6.9,-,N/A,,Clear,40,2013-01-04 01:51:00
7:51 PM,55.9,12.9,18,30.12,10.0,NE,11.5,-,N/A,,Clear,40,2013-01-04 02:51:00
8:51 PM,54.0,12.0,19,30.14,10.0,NE,15.0,23.0,N/A,,Clear,50,2013-01-04 03:51:00
9:51 PM,53.1,14.0,21,30.17,10.0,ENE,11.5,-,N/A,,Clear,60,2013-01-04 04:51:00
10:51 PM,51.1,14.0,23,30.18,10.0,ENE,10.4,-,N/A,,Clear,60,2013-01-04 05:51:00
11:51 PM,51.1,12.9,22,30.19,10.0,NE,8.1,-,N/A,,Clear,50,2013-01-04 06:51:00